[[{"header":{"parameterUnit":"m.s-1","parameterCategory":1,"la1":30.2991,"la2":30.254,"lo1":-89.0895,"lo2":-89.0444,"dy":0.0017,"dx":0.0017,"nx":28,"ny":28,"refTime":"2023-10-20T09:00:00:Z","depth":0,"parameterNumber":2,"parameterNumberName":"U-component_of_WINDS"},"data":[0,0,0,0,0,0,0,0,0,0,0,0,0,0,0,0,0,0,0,0,0,0,0,0,0,0,0,0,0,0,0,0,0,0,0,0,0,0,0,0,0,0,0,0,0,0,0,0,0,0,0,0,0,0,0,0,0,0,-3.3732,-3.3732,0,-3.3744,-3.3744,-3.3744,-3.3693,-3.3691,-3.369,-3.3688,-3.3701,-3.3702,-3.3704,0,0,0,0,0,0,0,0,0,0,0,0,0,-3.3665,-3.3667,-3.3732,-3.3732,-3.3732,-3.3744,-3.3744,-3.3744,-3.3693,-3.3691,-3.3689,-3.3688,-3.37,-3.3702,-3.3704,0,0,0,0,0,0,0,0,0,0,0,0,0,-3.3688,-3.3667,-3.3732,-3.3708,-3.3706,-3.3744,-3.3744,-3.3744,-3.3693,-3.3691,-3.3689,-3.3687,-3.3699,-3.3702,-3.3704,-3.3766,0,0,-3.3712,-3.3713,0,0,0,0,0,0,0,0,-3.3687,-3.369,-3.3711,-3.371,-3.3708,-3.3715,-3.3725,-3.3752,-3.3694,-3.3698,-3.3688,-3.3686,-3.3707,-3.3709,-3.3716,-3.3766,-3.3767,-3.3713,-3.3714,-3.3715,-3.3716,0,0,0,0,0,0,0,-3.3685,-3.3689,-3.3737,-3.3712,-3.371,-3.3697,-3.3698,-3.373,-3.3715,-3.3698,-3.3694,-3.3696,-3.3706,-3.3714,-3.3716,-3.3767,-3.3712,-3.3715,-3.3716,-3.3717,-3.3872,-3.3874,0,0,0,0,0,0,-3.3687,-3.3688,-3.3736,-3.3737,-3.3691,-3.37,-3.3701,-3.3715,-3.3715,-3.3713,-3.3698,-3.3694,-3.371,-3.3713,-3.3716,-3.3791,-3.3715,-3.3718,-3.3719,-3.3869,-3.3872,-3.3875,0,0,0,0,0,0,-3.3685,-3.3691,-3.3736,-3.3712,-3.3717,-3.3704,-3.372,-3.3716,-3.3724,-3.3715,-3.3712,-3.3709,-3.3709,-3.3713,-3.3755,-3.379,-3.3719,-3.3721,-3.3866,-3.387,-3.3874,-3.3939,0,0,0,0,0,0,-3.3684,-3.3691,-3.3714,-3.3713,-3.3718,-3.3774,-3.3722,-3.3718,-3.3729,-3.3723,-3.3725,-3.3723,-3.3707,-3.3751,-3.3757,-3.3793,-3.3723,-3.3863,-3.3868,-3.3873,-3.3933,-3.3944,-3.3954,0,0,0,0,0,-3.3681,-3.3731,-3.3715,-3.3722,-3.3746,-3.3776,-3.3779,-3.376,-3.3732,-3.3755,-3.375,-3.3723,-3.3785,-3.3756,-3.3762,-3.3799,-3.3861,-3.3867,-3.3872,-3.3929,-3.3942,-3.3953,0,0,0,0,0,0,-3.3736,-3.373,-3.3713,-3.3764,-3.3771,-3.3767,-3.3796,-3.3775,-3.379,-3.3784,-3.376,-3.3761,-3.3808,-3.3807,-3.3775,-3.386,-3.3818,-3.3825,-3.3859,-3.3872,-3.3882,-3.3882,-3.3725,0,0,0,0,0,-3.3754,-3.3779,-3.3772,-3.3818,-3.3822,-3.3809,-3.3821,-3.3806,-3.3812,-3.3815,-3.3812,-3.382,-3.3842,-3.3856,-3.3875,-3.3933,-3.3934,-3.3961,-3.3971,-3.398,-3.3987,-3.402,-3.4033,-3.3894,-3.3894,-3.3894,0,0,-3.3791,-3.3791,-3.3808,-3.3829,-3.3832,-3.3859,-3.3811,-3.3841,-3.3861,-3.3819,-3.386,-3.3859,-3.3865,-3.3916,-3.3938,-3.3917,-3.4026,-3.3987,-3.3994,-3.3996,-3.4028,-3.4041,-3.4053,-3.3898,-3.3897,-3.3896,0,0,-3.3874,-3.3875,-3.3915,-3.392,-3.3927,-3.3918,-3.3927,-3.3928,-3.3926,-3.3966,-3.3936,-3.3959,-3.3996,-3.4003,-3.4012,-3.4099,-3.4076,-3.4106,-3.416,-3.4192,-3.4204,-3.4213,-3.4247,-3.4259,-3.4113,-3.4113,-3.4113,0,-3.3919,-3.3958,-3.3937,-3.397,-3.3981,-3.3945,-3.3986,-3.3992,-3.4005,-3.4013,-3.3989,-3.4037,-3.4039,-3.4092,-3.4114,-3.4121,-3.4133,-3.4106,-3.4204,-3.4213,-3.4222,-3.4254,-3.4266,-3.4117,-3.4116,-3.4116,-3.4116,0,-3.4015,-3.4043,-3.4074,-3.4089,-3.4103,-3.4139,-3.4125,-3.4142,-3.4126,-3.412,-3.4163,-3.4164,-3.4184,-3.4195,-3.418,-3.4248,-3.4235,-3.4207,-3.4165,-3.4239,-3.4269,-3.4281,-3.4122,-3.4121,-3.412,-3.4119,0,0,-3.4132,-3.4136,-3.4148,-3.4156,-3.4162,-3.4183,-3.4218,-3.4239,-3.4255,-3.4265,-3.4296,-3.4329,-3.4305,-3.4314,-3.4299,-3.4328,-3.4401,-3.4297,-3.4297,-3.4319,-3.4479,-3.4502,-3.4516,-3.4385,-3.4387,-3.4389,-3.448,0,-3.4215,-3.4276,-3.426,-3.4321,-3.4348,-3.4316,-3.4347,-3.4355,-3.435,-3.4373,-3.4368,-3.4393,-3.4357,-3.4363,-3.439,-3.4386,-3.4433,-3.4379,-3.4415,-3.4416,-3.4417,-3.4531,-3.4554,-3.464,-3.4491,-3.4493,-3.4494,0,-3.4319,-3.4336,-3.4401,-3.4405,-3.4415,-3.4444,-3.4463,-3.4484,-3.4493,-3.4488,-3.45,-3.448,-3.4516,-3.4473,-3.4524,-3.4488,-3.4501,-3.4502,-3.4505,-3.4509,-3.4461,-3.4541,-3.4666,-3.468,-3.4512,-3.451,-3.4509,0,-3.4402,-3.4439,-3.4484,-3.4491,-3.4496,-3.4517,-3.452,-3.4527,-3.4541,-3.4557,-3.4567,-3.4587,-3.4598,-3.4615,-3.4602,-3.457,-3.4656,-3.461,-3.4655,-3.4655,-3.4675,-3.4675,-3.4807,-3.468,-3.468,-3.468,-3.468,0,-3.4497,-3.4539,-3.4521,-3.4549,-3.4595,-3.4576,-3.4622,-3.4622,-3.4628,-3.4656,-3.4628,-3.4655,-3.4634,-3.466,-3.4649,-3.4695,-3.4699,-3.4698,-3.4695,-3.4702,-3.4702,-3.4712,-3.4706,-3.4683,-3.4683,-3.4682,-3.4681,0,-3.4597,-3.4587,-3.4634,-3.4635,-3.4637,-3.4671,-3.4673,-3.4699,-3.4694,-3.4729,-3.4737,-3.4728,-3.4756,-3.4744,-3.4774,-3.4767,-3.4827,-3.4814,-3.4824,-3.4822,-3.4868,-3.4865,-3.5013,-3.5033,-3.4891,-3.4892,-3.4893,0,-3.466,-3.4692,-3.4698,-3.4715,-3.472,-3.4747,-3.4762,-3.4745,-3.4761,-3.4775,-3.4801,-3.4827,-3.4847,-3.4895,-3.4891,-3.4915,-3.4905,-3.4955,-3.4908,-3.4915,-3.4909,-3.4908,-3.4913,-3.4965,-3.4967,-3.4968,-3.4969,0,-3.4774,-3.4767,-3.479,-3.4812,-3.4831,-3.4847,-3.4861,-3.4876,-3.486,-3.488,-3.491,-3.4926,-3.4957,-3.4985,-3.5006,-3.501,-3.4988,-3.4984,-3.4996,-3.5004,-3.501,-3.501,-3.4853,-3.4981,-3.498,-3.4979,-3.4978,-3.4978,-3.4858,-3.4886,-3.4896,-3.4923,-3.4932,-3.4946,-3.4972,-3.497,-3.4994,-3.5019,-3.5007,-3.5042,-3.5052,-3.5078,-3.5086,-3.5113,-3.5094,-3.511,-3.5115,-3.512,-3.5128,-3.5004,-3.5117,-3.5116,-3.5116,-3.5116,-3.5116,0,-3.4973,-3.4978,-3.5003,-3.5024,-3.5046,-3.5023,-3.5038,-3.5058,-3.5089,-3.51,-3.5122,-3.5157,-3.5184,-3.5184,-3.5209,-3.5232,-3.5223,-3.5239,-3.5239,-3.5241,-3.5142,-3.5131,-3.5247,-3.5247,-3.5247,-3.5247,-3.5247,-3.5246,-3.5035,-3.5082,-3.5078,-3.5129,-3.5134,-3.5168,-3.5179,-3.5193,-3.5202,-3.5243,-3.5266,-3.5265,-3.5273,-3.5299,-3.5323,-3.5322,-3.5334,-3.5356,-3.5352,-3.526,-3.5247,-3.5235,-3.5224,-3.5358,-3.5358,-3.5448,-3.5449,-3.5449]},{"header":{"parameterUnit":"m.s-1","parameterCategory":1,"la1":30.2991,"la2":30.254,"lo1":-89.0895,"lo2":-89.0444,"dy":0.0017,"dx":0.0017,"nx":28,"ny":28,"refTime":"2023-10-20T09:00:00:Z","depth":0,"parameterNumber":3,"parameterNumberName":"V-component_of_WINDS"},"data":[0,0,0,0,0,0,0,0,0,0,0,0,0,0,0,0,0,0,0,0,0,0,0,0,0,0,0,0,0,0,0,0,0,0,0,0,0,0,0,0,0,0,0,0,0,0,0,0,0,0,0,0,0,0,0,0,0,0,-0.1717,-0.1718,0,-0.1765,-0.1766,-0.1766,-0.176,-0.1759,-0.1759,-0.1758,-0.181,-0.1812,-0.1814,0,0,0,0,0,0,0,0,0,0,0,0,0,-0.1621,-0.1623,-0.1717,-0.1718,-0.1718,-0.1765,-0.1766,-0.1766,-0.176,-0.1759,-0.1758,-0.1758,-0.1809,-0.1811,-0.1814,0,0,0,0,0,0,0,0,0,0,0,0,0,-0.1665,-0.1623,-0.1717,-0.1721,-0.1722,-0.1765,-0.1766,-0.1767,-0.1761,-0.1759,-0.1758,-0.1757,-0.1808,-0.1811,-0.1814,-0.1857,0,0,-0.1824,-0.1825,0,0,0,0,0,0,0,0,-0.1663,-0.1669,-0.172,-0.1721,-0.1722,-0.1755,-0.1751,-0.1797,-0.1761,-0.1746,-0.1758,-0.1757,-0.1793,-0.1797,-0.1809,-0.186,-0.1862,-0.1824,-0.1826,-0.1827,-0.1828,0,0,0,0,0,0,0,-0.166,-0.1667,-0.1736,-0.172,-0.1722,-0.172,-0.1725,-0.176,-0.1775,-0.1747,-0.1747,-0.1752,-0.1793,-0.1806,-0.181,-0.1863,-0.1824,-0.1827,-0.1829,-0.183,-0.1951,-0.1952,0,0,0,0,0,0,-0.1655,-0.1664,-0.1735,-0.1738,-0.1689,-0.1723,-0.1729,-0.1746,-0.1775,-0.1778,-0.1753,-0.1752,-0.1801,-0.1806,-0.1812,-0.1864,-0.1827,-0.183,-0.1832,-0.195,-0.1951,-0.1953,0,0,0,0,0,0,-0.1653,-0.1662,-0.1733,-0.1701,-0.171,-0.1726,-0.1745,-0.1747,-0.176,-0.178,-0.1783,-0.1763,-0.18,-0.1807,-0.1846,-0.1866,-0.1832,-0.1835,-0.1948,-0.195,-0.1952,-0.1969,0,0,0,0,0,0,-0.1651,-0.1661,-0.1678,-0.1701,-0.1711,-0.1766,-0.1747,-0.1749,-0.1765,-0.1764,-0.179,-0.1793,-0.18,-0.1841,-0.1849,-0.1869,-0.1837,-0.1946,-0.1949,-0.1951,-0.1967,-0.1971,-0.1975,0,0,0,0,0,-0.1647,-0.1681,-0.1678,-0.1687,-0.1732,-0.1767,-0.1773,-0.1779,-0.1767,-0.1784,-0.1796,-0.1792,-0.1862,-0.1845,-0.1854,-0.1876,-0.1945,-0.1948,-0.1951,-0.1965,-0.197,-0.1975,0,0,0,0,0,0,-0.1661,-0.1684,-0.1682,-0.1724,-0.1743,-0.1766,-0.1787,-0.1785,-0.1809,-0.1807,-0.1814,-0.182,-0.1859,-0.1871,-0.1852,-0.1918,-0.1902,-0.1907,-0.1909,-0.1915,-0.1919,-0.1916,-0.184,0,0,0,0,0,-0.1668,-0.1694,-0.1713,-0.1749,-0.1759,-0.1771,-0.1787,-0.1789,-0.181,-0.1819,-0.1834,-0.1854,-0.1881,-0.1898,-0.1924,-0.1968,-0.1974,-0.1987,-0.1991,-0.1995,-0.1999,-0.2023,-0.2029,-0.1962,-0.1962,-0.1962,0,0,-0.1685,-0.1701,-0.1717,-0.1752,-0.1767,-0.1794,-0.1778,-0.1807,-0.1827,-0.1823,-0.186,-0.1872,-0.1896,-0.1937,-0.1956,-0.1948,-0.2018,-0.1998,-0.2001,-0.2004,-0.2027,-0.2033,-0.2038,-0.1964,-0.1964,-0.1964,0,0,-0.1729,-0.1743,-0.1774,-0.1789,-0.1812,-0.182,-0.1827,-0.185,-0.1857,-0.1894,-0.1892,-0.1915,-0.1961,-0.1978,-0.1992,-0.204,-0.2038,-0.2048,-0.2071,-0.2094,-0.2099,-0.2104,-0.2121,-0.2127,-0.2052,-0.2052,-0.2052,0,-0.1747,-0.1786,-0.1791,-0.182,-0.1835,-0.1831,-0.1863,-0.1877,-0.1908,-0.1919,-0.1909,-0.1965,-0.1981,-0.2026,-0.2037,-0.2049,-0.2058,-0.2046,-0.2098,-0.2103,-0.2107,-0.2124,-0.213,-0.2054,-0.2053,-0.2053,-0.2053,0,-0.1807,-0.1835,-0.1857,-0.1885,-0.1903,-0.1933,-0.1942,-0.1959,-0.196,-0.1969,-0.2007,-0.2025,-0.2054,-0.2064,-0.2066,-0.2109,-0.2104,-0.2096,-0.208,-0.2115,-0.213,-0.2137,-0.2055,-0.2055,-0.2055,-0.2054,0,0,-0.1863,-0.1891,-0.19,-0.1912,-0.1936,-0.1957,-0.1987,-0.2014,-0.2029,-0.2049,-0.2075,-0.2112,-0.2105,-0.2121,-0.2125,-0.2145,-0.2182,-0.2134,-0.2135,-0.2143,-0.223,-0.2237,-0.2244,-0.2179,-0.2181,-0.2182,-0.2228,0,-0.1909,-0.1961,-0.1965,-0.2012,-0.2037,-0.2033,-0.2058,-0.2076,-0.2085,-0.2107,-0.2117,-0.2144,-0.2132,-0.2142,-0.2161,-0.2173,-0.2199,-0.2169,-0.2204,-0.2205,-0.2199,-0.2252,-0.2259,-0.2302,-0.2235,-0.2236,-0.2236,0,-0.1971,-0.1992,-0.2041,-0.206,-0.2071,-0.2094,-0.2119,-0.214,-0.216,-0.2165,-0.2182,-0.2182,-0.2213,-0.2194,-0.2237,-0.2216,-0.223,-0.2238,-0.224,-0.2244,-0.2223,-0.2258,-0.2316,-0.2323,-0.2246,-0.2245,-0.2245,0,-0.2006,-0.2047,-0.2081,-0.2092,-0.2116,-0.2132,-0.2143,-0.2161,-0.2177,-0.2198,-0.2208,-0.2233,-0.2247,-0.2267,-0.2274,-0.226,-0.2316,-0.2298,-0.2321,-0.2321,-0.2334,-0.2334,-0.2396,-0.2342,-0.2342,-0.2342,-0.2342,0,-0.2058,-0.2089,-0.2098,-0.2119,-0.2153,-0.2157,-0.219,-0.22,-0.2216,-0.2239,-0.2237,-0.2259,-0.2266,-0.229,-0.2295,-0.2329,-0.2336,-0.2341,-0.2342,-0.2341,-0.2341,-0.2351,-0.2349,-0.2344,-0.2343,-0.2343,-0.2343,0,-0.2105,-0.2112,-0.2149,-0.2167,-0.2173,-0.2197,-0.2213,-0.2233,-0.2241,-0.227,-0.2277,-0.2289,-0.2317,-0.2325,-0.2358,-0.2362,-0.2402,-0.24,-0.2395,-0.2395,-0.2418,-0.2416,-0.2491,-0.2501,-0.2439,-0.244,-0.244,0,-0.2138,-0.2161,-0.2181,-0.2196,-0.2207,-0.2231,-0.2247,-0.2251,-0.2267,-0.2291,-0.2308,-0.2335,-0.2356,-0.24,-0.2412,-0.2437,-0.2437,-0.2461,-0.2441,-0.2439,-0.2438,-0.2436,-0.2439,-0.2465,-0.2466,-0.2466,-0.2467,0,-0.2196,-0.2198,-0.222,-0.2243,-0.2261,-0.228,-0.2297,-0.231,-0.2317,-0.2335,-0.2362,-0.2379,-0.2412,-0.2438,-0.2463,-0.2475,-0.2472,-0.2473,-0.2479,-0.248,-0.2476,-0.2478,-0.2406,-0.2471,-0.2471,-0.2471,-0.247,-0.247,-0.2237,-0.2257,-0.2274,-0.2298,-0.2312,-0.2328,-0.2348,-0.2357,-0.238,-0.2406,-0.2407,-0.2437,-0.2455,-0.2488,-0.2501,-0.2524,-0.2517,-0.2527,-0.253,-0.2532,-0.2534,-0.2471,-0.2529,-0.2528,-0.2528,-0.2528,-0.2528,0,-0.2295,-0.2305,-0.2327,-0.2352,-0.2371,-0.2365,-0.2384,-0.2401,-0.2426,-0.2443,-0.2464,-0.2495,-0.252,-0.2533,-0.2558,-0.2574,-0.2574,-0.2581,-0.258,-0.2583,-0.2539,-0.253,-0.2581,-0.2581,-0.2581,-0.2581,-0.2581,-0.2581,-0.2327,-0.2361,-0.2364,-0.2404,-0.2414,-0.2442,-0.2454,-0.2469,-0.2482,-0.2516,-0.2537,-0.2545,-0.256,-0.2586,-0.2609,-0.2612,-0.2622,-0.263,-0.2633,-0.2592,-0.2586,-0.2581,-0.2573,-0.2632,-0.2632,-0.2675,-0.2676,-0.2676]}]]